"Pseudo-MPEC" for N00fowz

Created 2019 Nov 13 10:07:07 UT using Find_Orb

Click here for an explanation of pseudo-MPECs

 
 Astrometry: 
     N00fowz  S2019 11 046d-:R0U=t1*2(+v8D3]=-72qr5jXwwoa*c:orWi*;Uf!Q$E27])yC51
     N00fowz  s2019 11 04toJm+:%(ktiv7]E0:4n0jZ1u^0aOmk(B`R5EFnM8C=hZ3jo!^YErC51
     N00fowz  S2019 11 04jA0T\:H'BjBOYgOM;Ap2c+fPu5R4nQ`^Lqm/1;6-_X6rFfEaapMKC51
     N00fowz  s2019 11 04!9!PO-C_%\1PO@;DW)im!5YPtJ#EKqGVFTNC9-%K].ERR/5lj[[kC51
     N00fowz  S2019 11 042/oiUu`VQ,d%P$g/)JrNW$+f:Qh^2#)x2yBAt(w%ib^s@K(#PT+-C51
     N00fowz  s2019 11 04YjsMA;1.;`*:(Lh1ImeQM+#/.-dn:C^gp('hvN^jW0XB4%vyWI_4C51
     N00fowz  S2019 11 04XmAB;5?5Z^qH8GPv8--J)uP%ta(Yua'p]B+#valVy=$7eU3Wt'oWC51
     N00fowz  s2019 11 04%DbWmI^=`[H=Wcd4b'lSF!gW;_repwci_@6b%T#`V@=@^+\@x6fyC51
     N00fowz  S2019 11 04WxqL7ikaATPZuAwu:+t1KY=byoR?ncq@5./'pP[eVAb0JH66MISiC51
     N00fowz  s2019 11 04HABp*96t!r*6rom:WW0M(2d`3K)6MK2C/%4)Astrometry'4^yuLC51
     N00fowz  S2019 11 05hB@yyPM'c7y#$J,nQ1Zuu`c$Aw=Ao8G]Zg]Yq0;4!:kY?R(pcbE^C51
     N00fowz  s2019 11 05H.=j_Ze/Lflredacted;,-)?$mZmHO^(H60rTLrluZc?@w^OI$u/C51
     N00fowz  S2019 11 051YOiLc\OluW:eA3?m_2B?O;_MShvW`hwclick52#RHRECc_/^LN,C51
     N00fowz  s2019 11 051:NQDDjqw3GUQ-w(Bc+O28tU!Y:`GFq;N_rGVpZ$%11V9.@x]R6WC51
     N00fowz  S2019 11 05alj,PM,hZXNS%^#_b(JN^=6XM0,^rxNR^YYD5G%mO2M4here52PqC51
     N00fowz  s2019 11 057XUTH4JuxWYJ/bVHu5ld7q1f)^TrK_ibqyp@3AoexOjakF/@\*sMC51
     N00fowz  S2019 11 05;9WH)K-sgXr]x_$nJVw:BaMbw)lpWa/haWqfj-wbkO!ICLt@D[K$C51
     N00fowz  s2019 11 05XUJN228MIq:h!?XlnZl`BfZ@)kat2#2Dofq8e`Tg%23tFO@,K,gkC51
     N00fowz  S2019 11 055]7wW7c4$-)jX(Db6eB#xpI(60SBQy24jcE'LZ_Y=Pks25\IT$LSC51
     N00fowz  s2019 11 05NO[d_h,6gr$W[J9a^x@U(2O;!eVCDcqsx[3fA#.n(eO,Xkj1eE9QC51
     N00fowz  S2019 11 05N.S9c\J-x$hejdhxXJaVPRFarFUItchD?JnE2FI1nTFP$l[ox[VpC51
     N00fowz  s2019 11 05'1@VOvDsHA;Zhe5SY--Y^fx*Gm((#SdistIke@f'U.FDbYQI8i56C51
     N00fowz  S2019 11 05s6)Vs-/]P\1n+)9KI%RX4RP1.yIwi`K%C[R*j5Z(1)A\S!h1i@h?C51
     N00fowz  s2019 11 05+vrUMaoxA8YsC#cW]c`Im[+\NeKHSDT)=cWXX/yJCMm6%^Se-FlFC51
     N00fowz  S2019 11 05]tfbC?aQI$:Z6ri6B2=j3SoK,4X-4J-KEshBmOs-3PC_?3[,*%s]C51
     N00fowz  s2019 11 05NDDb+Q8%2DG%MtuZ-KXFDE\*Pa#g6GeR#p)*c`/O^1T2+)Fm.Xm,C51
     N00fowz  S2019 11 06$O7.7:OM;Y?ec#N#g#ax1s]n@PVxDcVsTdHnkdcK^(ha1kNhRdHFC51
     N00fowz  s2019 11 06n%x8B/fvMPDuBc8GGA5bRk@2Kt85C^*7vDFtsmrIi5a66(%y4+D/C51
     N00fowz  S2019 11 06=o)V+ni\+?Z+\TY)'(ribSrA,`LPoCySS*3HMp-m*m)9L2@T^6CCC51
     N00fowz  s2019 11 06oAOVGY%jY2D=FkJ-8TumL-gE$$EGs@Q)g0c1iO/aOU,y=D.=sUDCC51
     N00fowz  S2019 11 06$%G\JHVDy910VvS`,n5;iXxQPq,tQORVv5ZyE$x8ibofpUrdD3egC51
     N00fowz  s2019 11 06l=v5KJfCQ7#P6\(OKkx7;-/%+wDsforCbk?wi=qE:]r,MT4%YT=tC51
     N00fowz  S2019 11 06aTG#x@`1s7(b/y.I!EAaruuO!U]r)yx]FV\@0vQ*h3Fwf.ASB(q$C51
     N00fowz  s2019 11 06/L3lDkw7-6W=fcG.PH_=V`^0\gjSES2EJNk!(\.rnL91MGau-$RmC51
     N00fowz KC2019 11 08=)^`\)9b;^gC)BfQxZW7k^_RZF1fmN\vfBXo5udsaW^gCifWFWH+H21
     N00fowz KC2019 11 08T?b?_/mu+3=d(R9F%U.\muY];6]s8hima,2F;ZAGm8ePD$P$3^:ZH21
     N00fowz KC2019 11 084t=)0!IClp+R(+m':0sY:]jBJ)\+q0Hu##x!In`!PknmLcWFBKZ;H21
     N00fowz KC2019 11 08`*xv5oa8p\osZpv(VwXHk%N.6tQexplanationa81WRoU)+%jwulH21

Station data:
(C51) WISE. Measurers A. Mainzer, E. Wright, J. Bauer, T. Grav, J. Dailey, J.
   Masiero, R. Cutri, R. McMillan, R. Walker.
(H21) Astronomical Research Observatory, Westfield  (N39.483057 W87.968270)
   US/Illinois. 0.76-m f/3.0 astrograph + CCD.

Orbital elements:  N00fowz
   Perihelion 2019 Nov 3.884919 TT = 21:14:17 (JD 2458791.384919)
Epoch 2019 Nov  8.0 TT = JDT 2458795.5   Earth MOID: 0.4225   AutoNEOCP
M   1.53783366                      (J2000 ecliptic)
n   0.37370681     Peri.  138.58676
a   1.90889499     Node   300.88414
e   0.2900418      Incl.   23.81630
P   2.64/963.30d   H   18.7     G   0.15   q 1.35523548  Q 2.46255450
From 21 observations 2019 Nov. 4-8; mean residual 1".81
Residuals in arcseconds: 
191104 C51  2.7-  1.3+    191105 C51  .63-  1.2-    191106 C51  2.9+  .94-    
191104 C51  2.8-  .76-    191105 C51  .42+  .32-    191106 C51  2.6+  1.7-    
191104 C51  1.4-  1.2+    191105 C51  .29+  .89-    191106 C51  2.4+  1.8-    
191104 C51  3.6-  1.0+    191105 C51  .15-  1.3-    191108 H21  .24-  .00     
191104 C51  1.1-  .31+    191105 C51  1.4+  2.4-    191108 H21  .40-  .36+    
191105 C51  .02-  .39+    191105 C51  5.3+  4.9+    191108 H21  .57-  .23+    
191105 C51  .81+  1.3+    191106 C51  2.2+  1.2-    191108 H21  .26-  .09-    

Ephemerides (geocentric):
Date (UTC) HH   RA              Dec         delta   r     elong  mag
---- -- -- --  -------------   -----------  ------ ------ -----  ---
2019 11 13 10  09 48 03.669   +35 30 03.47  .87447 1.3574  93.3 20.9
2019 11 13 11  09 48 08.566   +35 29 03.35  .87422 1.3574  93.3 20.9
2019 11 13 12  09 48 13.458   +35 28 03.20  .87397 1.3574  93.3 20.9
2019 11 13 13  09 48 18.345   +35 27 03.04  .87371 1.3574  93.3 20.9
2019 11 13 14  09 48 23.226   +35 26 02.85  .87346 1.3574  93.3 20.9
2019 11 13 15  09 48 28.103   +35 25 02.64  .87321 1.3574  93.3 20.9
2019 11 13 16  09 48 32.975   +35 24 02.40  .87296 1.3575  93.4 20.9
2019 11 13 17  09 48 37.842   +35 23 02.15  .87270 1.3575  93.4 20.9
2019 11 13 18  09 48 42.704   +35 22 01.87  .87245 1.3575  93.4 20.9
2019 11 13 19  09 48 47.560   +35 21 01.58  .87220 1.3575  93.4 20.9
2019 11 13 20  09 48 52.412   +35 20 01.26  .87195 1.3575  93.4 20.9
2019 11 13 21  09 48 57.259   +35 19 00.92  .87170 1.3576  93.5 20.9
2019 11 13 22  09 49 02.101   +35 18 00.55  .87144 1.3576  93.5 20.9
2019 11 13 23  09 49 06.938   +35 17 00.17  .87119 1.3576  93.5 20.9
2019 11 14 00  09 49 11.769   +35 15 59.77  .87094 1.3576  93.5 20.8
2019 11 14 01  09 49 16.596   +35 14 59.34  .87069 1.3576  93.5 20.8
2019 11 14 02  09 49 21.418   +35 13 58.89  .87043 1.3577  93.5 20.8
2019 11 14 03  09 49 26.235   +35 12 58.42  .87018 1.3577  93.6 20.8
2019 11 14 04  09 49 31.047   +35 11 57.93  .86993 1.3577  93.6 20.8
2019 11 14 05  09 49 35.854   +35 10 57.42  .86968 1.3577  93.6 20.8
2019 11 14 06  09 49 40.655   +35 09 56.88  .86943 1.3577  93.6 20.8
2019 11 14 07  09 49 45.452   +35 08 56.33  .86917 1.3578  93.6 20.8
2019 11 14 08  09 49 50.244   +35 07 55.75  .86892 1.3578  93.7 20.8
2019 11 14 09  09 49 55.031   +35 06 55.15  .86867 1.3578  93.7 20.8
2019 11 14 10  09 49 59.813   +35 05 54.53  .86842 1.3578  93.7 20.8
2019 11 14 11  09 50 04.590   +35 04 53.89  .86816 1.3578  93.7 20.8
2019 11 14 12  09 50 09.361   +35 03 53.22  .86791 1.3579  93.7 20.8
2019 11 14 13  09 50 14.128   +35 02 52.54  .86766 1.3579  93.7 20.8
2019 11 14 14  09 50 18.890   +35 01 51.83  .86741 1.3579  93.8 20.8
2019 11 14 15  09 50 23.647   +35 00 51.10  .86715 1.3579  93.8 20.8
2019 11 14 16  09 50 28.399   +34 59 50.36  .86690 1.3579  93.8 20.8
2019 11 14 17  09 50 33.146   +34 58 49.58  .86665 1.3580  93.8 20.8
2019 11 14 18  09 50 37.887   +34 57 48.79  .86640 1.3580  93.8 20.8
2019 11 14 19  09 50 42.624   +34 56 47.98  .86614 1.3580  93.9 20.8
2019 11 14 20  09 50 47.356   +34 55 47.15  .86589 1.3580  93.9 20.8
2019 11 14 21  09 50 52.083   +34 54 46.29  .86564 1.3580  93.9 20.8
2019 11 14 22  09 50 56.805   +34 53 45.41  .86539 1.3581  93.9 20.8
2019 11 14 23  09 51 01.521   +34 52 44.51  .86513 1.3581  93.9 20.8
2019 11 15 00  09 51 06.233   +34 51 43.59  .86488 1.3581  93.9 20.8
2019 11 15 01  09 51 10.940   +34 50 42.65  .86463 1.3581  94.0 20.8
2019 11 15 02  09 51 15.642   +34 49 41.69  .86438 1.3582  94.0 20.8
2019 11 15 03  09 51 20.339   +34 48 40.70  .86412 1.3582  94.0 20.8
2019 11 15 04  09 51 25.030   +34 47 39.70  .86387 1.3582  94.0 20.8
2019 11 15 05  09 51 29.717   +34 46 38.67  .86362 1.3582  94.0 20.8
2019 11 15 06  09 51 34.399   +34 45 37.63  .86337 1.3582  94.1 20.8
2019 11 15 07  09 51 39.076   +34 44 36.56  .86311 1.3583  94.1 20.8
2019 11 15 08  09 51 43.747   +34 43 35.47  .86286 1.3583  94.1 20.8
2019 11 15 09  09 51 48.414   +34 42 34.35  .86261 1.3583  94.1 20.8